Voltar ao catálogo

CP4

AtivoCiênciaSSO
NORAD 31132·PAYLOAD·🇺🇸 United States

Lançado Apr 17, 2007 de Baikonur Cosmodrome

Loading…

Próximas Passagens (próximas 24 horas)

TLE

AtualizadoSource: Space-Track

Época: Sep 14, 2026, 10:20 UTC

1 31132U 07012Q   26257.43110356  .00000922  00000-0  16865-3 0  9997
2 31132  98.4463 244.9052 0072041  45.1560 315.5466 14.66783768 33436

Acompanhe CP4 em tempo real com AllMySat

Download on the App Store